www.pogodaiklimat.ru

Погода и климат >> Архив погоды >> Канада >> Peterborough Arpt


ПОГОДА в Peterborough Arpt

  • Прогноз погоды в Peterborough Arpt
  • Монитор погоды в Peterborough Arpt
  • Климат города

АРХИВ ПОГОДЫ в Peterborough Arpt

Время (UTC), дата Ветер
(напр.,м/с)
 
Видим.   Явления Облачность Т
(С)
Тd
(С)
f
(%)
Тe
(С)
Тes
(С)
Комфортность P
(гПа)
Po
(гПа)
Тmin
(С)
Tmax
(С)
R
(мм)
R24
(мм)
S
(см)
12 17.04 ЮЗ 2 н/о н/о -21.9 -25.2 75 -27 -27 1023.0 1021.6 -22.6 -18.4 27
15 17.04 З 1 н/о {осадки} н/о -19.7 -23.6 71 -20 -20 1023.3 1021.9 0.2
18 17.04 ЮЗ 4 н/о {осадки} н/о -19.3 -23.2 71 -28 -28 1023.9 1022.5 -22.6 -18.7 0.2
21 17.04 З 5 н/о н/о -18.7 -22.4 73 -29 -29 1024.5 1023.1
00 18.04 ЮЗ 4 н/о н/о -17.9 -21.2 75 -26 -26 1024.9 1023.5 -22.6 -17.7
03 18.04 З 1 н/о н/о -20.3 -23.2 78 -23 -23 1025.2 1023.8
06 18.04 З 1 н/о н/о -22.1 -24.9 78 -23 -23 1024.9 1023.5 -22.6 -17.7
09 18.04 С 3 н/о н/о -24.2 -27.2 76 -32 -32 опасность
обморожения
1024.3 1022.9
12 18.04 С 5 н/о н/о -22.3 -25.2 77 -32 -32 опасность
обморожения
1023.2 1021.8 -25.3 -17.7 27
15 18.04 СВ 8 н/о н/о -21.7 -24.6 77 -34 -34 опасность
обморожения
1021.4 1020.0
18 18.04 С 6 н/о н/о -19.0 -22.2 76 -30 -30 1019.4 1018.0 -25.3 -19.0
21 18.04 СВ 6 н/о н/о -13.9 -16.1 83 -23 -23 1015.9 1014.5 0.2
00 19.04 В 7 н/о {осадки} н/о -13.6 -15.7 84 -23 -23 1011.8 1010.5 -25.3 -12.9 0.9
03 19.04 В 7 н/о н/о -13.1 -15.0 86 -23 -23 1006.8 1005.5 1
06 19.04 ЮВ 9 н/о {осадки} н/о -10.7 -12.4 87 -21 -21 1002.4 1001.1 -25.3 -10.7 2 6
09 19.04 В 8 н/о н/о -9.4 -10.9 89 -19 -19 999.8 998.5 0.4
12 19.04 ЮВ 9 н/о {осадки} н/о -7.5 -8.9 90 -17 -17 998.2 996.9 -13.8 -10.7 1 55
15 19.04 ЮВ 11 н/о н/о -6.1 -7.6 89 -17 -17 997.2 995.9 0.3
18 19.04 ЮВ 12 н/о {осадки} н/о -4.5 -5.8 91 -15 -15 997.0 995.7 -19.1 -4.5 1
21 19.04 ЮЗ 9 н/о н/о -12.6 -14.8 84 -23 -23 1002.1 1000.8 0.3
00 20.04 ЮЗ 12 н/о {осадки} н/о -16.7 -19.2 81 -30 -30 1005.7 1004.4 -16.7 -3.7 0.5
03 20.04 ЮЗ 11 н/о н/о -19.4 -22.2 78 -33 -33 опасность
обморожения
1009.4 1008.1
06 20.04 ЮЗ 10 н/о н/о -20.9 -23.6 79 -35 -35 опасность
обморожения
1011.8 1010.5 1
09 20.04 З 8 н/о н/о -22.5 -25.7 75 -35 -35 опасность
обморожения
1014.1 1012.7
12 20.04 ЮЗ 4 н/о н/о -23.5 -27.6 69 -33 -33 опасность
обморожения
1015.3 1013.9 68
15 20.04 ЮЗ 3 н/о н/о -20.6 -25.3 66 -28 -28 1015.6 1014.2
18 20.04 ЮВ 1 н/о н/о -17.5 -24.1 56 -18 -18 1015.3 1013.9 -15.9 0.2
21 20.04 СВ 4 н/о н/о -18.2 -21.4 76 -26 -26 1014.5 1013.1
00 21.04 н/о н/о -18.5 -21.6 77 1013.7 1012.3 -24.2 -15.3
03 21.04 С 4 н/о н/о -21.8 -24.4 79 -31 -31 опасность
обморожения
1013.4 1012.0
06 21.04 С 3 н/о н/о -24.4 -27.1 78 -33 -33 опасность
обморожения
1013.3 1011.9 -24.5 -15.3 7
09 21.04 С 1 н/о н/о -23.0 -25.9 77 -26 -26 1013.0 1011.6
12 21.04 С 2 н/о н/о -22.2 -24.9 79 -27 -27 1013.0 1011.6 -24.5 -15.3 67
15 21.04 СВ 2 н/о н/о -19.2 -22.1 78 -25 -25 1012.2 1010.8
18 21.04 ЮВ 1 н/о н/о -17.5 -20.5 77 -20 -20 1012.0 1010.6 -24.5 -17.3
21 21.04 З 9 н/о н/о -18.6 -23.2 67 -31 -31 опасность
обморожения
1011.9 1010.5
00 22.04 З 7 н/о н/о -20.4 -25.9 61 -32 -32 опасность
обморожения
1013.4 1012.0 -24.5 -13.2
03 22.04 З 11 н/о н/о -23.3 -26.9 72 -39 -39 опасность
обморожения
1013.3 1011.9
06 22.04 ЮЗ 10 н/о н/о -25.0 -28.6 72 -40 -40 опасность
обморожения
1013.9 1012.5 -25.6 -13.2 4
09 22.04 З 7 н/о н/о -26.0 -30.0 69 -40 -40 опасность
обморожения
1015.2 1013.8
12 22.04 З 11 н/о н/о -24.8 -29.3 66 -41 -41 опасность
обморожения
1015.1 1013.7 -26.2 -13.2 60
15 22.04 З 14 н/о н/о -25.3 -29.4 68 -43 -43 опасность
обморожения
1014.1 1012.7
18 22.04 З 13 н/о н/о -23.8 -28.1 68 -40 -40 опасность
обморожения
1015.2 1013.8 -26.3 -23.1
21 22.04 З 15 н/о н/о -23.1 -27.1 70 -40 -40 опасность
обморожения
1014.6 1013.2 0.2
00 23.04 З 16 н/о {осадки} н/о -23.6 -27.1 73 -41 -41 опасность
обморожения
1014.5 1013.1 -26.3 -22.6 0.2
03 23.04 ЮЗ 8 н/о н/о -24.3 -28.1 71 -38 -38 опасность
обморожения
1016.1 1014.7
06 23.04 З 11 н/о н/о -24.7 -28.5 71 -40 -40 опасность
обморожения
1014.9 1013.5 -26.3 -21.0 1
09 23.04 ЮЗ 3 н/о н/о -24.6 -28.4 71 -33 -33 опасность
обморожения
1015.0 1013.6
12 23.04 Ю 5 н/о н/о -23.4 -26.9 73 -34 -34 опасность
обморожения
1014.5 1013.1 -25.2 -21.0 67
15 23.04 З 6 н/о н/о -22.8 -27.3 67 -35 -35 опасность
обморожения
1013.7 1012.3
18 23.04 З 9 н/о н/о -21.7 -25.9 69 -35 -35 опасность
обморожения
1012.6 1011.2 -25.2 -21.5
21 23.04 З 9 н/о н/о -20.7 -24.9 69 -34 -34 опасность
обморожения
1012.0 1010.6
00 24.04 З 9 н/о н/о -20.8 -25.0 69 -34 -34 опасность
обморожения
1011.4 1010.0 -25.2 -20.3
03 24.04 З 8 н/о н/о -21.7 -25.4 72 -35 -35 опасность
обморожения
1010.5 1009.1
06 24.04 З 9 н/о н/о -22.4 -26.2 71 -36 -36 опасность
обморожения
1009.6 1008.2 -25.2 -20.3 7
09 24.04 З 9 н/о н/о -22.9 -26.7 71 -37 -37 опасность
обморожения
1009.1 1007.7

 

Местоположение метеостанции Peterborough Arpt (Канада): широта 44.23 долгота -78.36 высота над уровнем моря 191 м.

В архиве по умолчанию представлена погода в Peterborough Arpt за последнюю неделю. Архивные данные за месяц целиком и за предыдущие месяцы, начиная с января 2011 года, Вы можете получить, выбрав интересующий диапазон дат из раскрывающегося списка и нажав кнопку "Ввод!".


*Определитесь, кто Вы:
робот инопланетянин человек

Внимание! Время в таблицах - всемирное. Для получения местного времени необходимо прибавить поправку, которая в Peterborough Arpt равна -5 ч.

Смотрите также архив погоды в соседних городах и на ближайших метеорологических станциях:

Погода в Peterborough Trent (Канада) (14 км)
Погода в Cobourg (Канада) (35 км)
Погода в Oshawa (Канада) (54 км)
Погода в Trenton (Канада) (67 км)
Погода в Lagoon City (Канада) (75 км)
Погода в Toronto Buttonville (Канада) (89 км)
Погода в Buttonville (Канада) (89 км)
Погода в Barrie-oro (Канада) (98 км)
Погода в Toronto Aes Hq (Канада) (101 км)
Погода в Bancroft Auto (Канада) (101 км)

Пояснения к столбцам:

Ветер - указаны скорость ветра в м/с - средняя за 10 мин, порывы в срок и между сроками (в фигурных скобках) и направление, откуда дует ветер: С - северный, СВ - северо-восточный, В - восточный, ЮВ - юго-восточный, Ю - южный, ЮЗ - юго-западный, З - западный, СЗ - северо-западный.
Видимость - горизонтальная дальность видимости в метрах или километрах. При видимости от 1 до 10 км при отсутствии осадков обычно наблюдается дымка, при ухудшении видимости до 1 км и менее - туман. В сухую погоду видимость может ухудшаться дымом, пылью или мглою.
Явления - указаны атмосферные явления, наблюдавшиеся в срок или в последний час перед сроком; фигурными скобками обозначены явления, наблюдавшиеся между сроками (за 1-3 часа до срока); квадратными скобками обозначены град или гололедные отложения с указанием их диаметра в мм.
Облачность - указаны через наклонную черту общая и нижняя облачность в баллах и высота нижней границы облаков в метрах; квадратными скобками обозначены формы облаков: Ci - перистые, Cs - перисто-слоистые, Cc - перисто-кучевые, Ac - высококучевые, As - высокослоистые, Sc - слоисто-кучевые, Ns - слоисто-дождевые, Cu - кучевые, Cb - кучево-дождевые. Подробнее классификацию облаков см. в Атласе облаков (PDF).
T - Температура воздуха - температура, измеренная на высоте 2 м над землей.
Td - Температура точки росы - температура, при понижении до которой содержащийся в воздухе водяной пар достигнет насыщения.
f - Относительная влажность воздуха - влажноcть воздуха, измеренная на высоте 2 м над землей.
Te - Эффективная температура - температура, которую ощущает одетый по сезону человек в тени. Характеристика душности погоды. При расчете учитывается влияние влажности воздуха и скорости ветра на теплоощущения человека.
Tes - Эффективная температура на солнце - температура, которую ощущает человек, с поправкой на солнечный нагрев. Характеристика знойности погоды. Зависит от высоты солнца над горизонтом, облачности и скорости ветра. Ночью, в пасмурную погоду, а также при ветре 12 м/с и более поправка равна нулю.
P - Атмосферное давление - приведенное к уровню моря атмосферное давление.
Po - Атмосферное давление - измеренное на уровне метеостанции атмосферное давление.
Tmin - Минимальная температура - минимум температуры воздуха на высоте 2 м над землей.
Tmax - Максимальная температура - максимум температуры воздуха на высоте 2 м над землей.
R - Количество осадков - Количество выпавших осадков за период времени, мм. При наведении курсора мыши на число - период времени, за который выпало указанное количество осадков.
R24 - Количество осадков - Количество выпавших осадков за 24 часа, мм.
S - Снежный покров - Высота снежного покрова, см. При наведении курсора мыши на число - состояние снежного покрова и степень покрытия местности в баллах.